When you browse on this site, cookies collect data to enhance your experience and personalize the content and advertising you see.
Visit our Privacy Policy to learn more. By continuing to use the site, you agree to this use of cookies and data.

Hourly Weather Zorya

Today, 13 August, Thursday

Time Temperature Precipitation Wind Pressure Humidity
00:00 +13°C° 0 mm 3 mps 748 mmHg 81%
01:00 +12°C° 0 mm 3 mps 749 mmHg 85%
02:00 +12°C° 0 mm 3 mps 749 mmHg 88%
03:00 +11°C° 0 mm 3 mps 749 mmHg 90%
04:00 +11°C° 0 mm 3 mps 749 mmHg 92%
05:00 +11°C° 0 mm 3 mps 749 mmHg 94%
06:00 +12°C° 0 mm 3 mps 749 mmHg 85%
07:00 +14°C° 0 mm 4 mps 749 mmHg 75%
08:00 +18°C° 0 mm 4 mps 749 mmHg 65%
09:00 +19°C° 0 mm 5 mps 749 mmHg 60%
10:00 +20°C° 0 mm 5 mps 749 mmHg 55%
11:00 +21°C° 0 mm 5 mps 749 mmHg 50%
12:00 +22°C° 0 mm 5 mps 749 mmHg 48%
13:00 +22°C° 0 mm 5 mps 748 mmHg 47%
14:00 +22°C° 0 mm 4 mps 748 mmHg 46%
15:00 +22°C° 0 mm 4 mps 748 mmHg 46%
16:00 +22°C° 0 mm 4 mps 748 mmHg 47%
17:00 +21°C° 0 mm 4 mps 748 mmHg 47%
18:00 +20°C° 0 mm 3 mps 748 mmHg 52%
19:00 +19°C° 0 mm 3 mps 748 mmHg 57%
20:00 +17°C° 0 mm 3 mps 749 mmHg 61%
21:00 +17°C° 0 mm 3 mps 749 mmHg 63%
22:00 +17°C° 0 mm 3 mps 749 mmHg 65%
23:00 +17°C° 0 mm 3 mps 749 mmHg 67%

Tomorrow, 14 August, Friday

Time Temperature Precipitation Wind Pressure Humidity
00:00 +16°C° 0 mm 3 mps 749 mmHg 72%
01:00 +13°C° 0 mm 3 mps 749 mmHg 76%
02:00 +12°C° 0 mm 3 mps 749 mmHg 81%
03:00 +12°C° 0 mm 3 mps 749 mmHg 82%
04:00 +11°C° 0 mm 3 mps 749 mmHg 84%
05:00 +10°C° 0 mm 3 mps 749 mmHg 86%
06:00 +12°C° 0 mm 3 mps 749 mmHg 77%
07:00 +14°C° 0 mm 3 mps 749 mmHg 68%
08:00 +17°C° 0 mm 4 mps 749 mmHg 58%
09:00 +18°C° 0 mm 4 mps 749 mmHg 53%
10:00 +20°C° 0 mm 4 mps 749 mmHg 48%
11:00 +21°C° 0 mm 4 mps 749 mmHg 43%
12:00 +21°C° 0 mm 4 mps 749 mmHg 43%
13:00 +21°C° 0 mm 4 mps 749 mmHg 42%
14:00 +21°C° 0 mm 4 mps 749 mmHg 42%
15:00 +21°C° 0 mm 4 mps 749 mmHg 44%
16:00 +21°C° 0 mm 4 mps 749 mmHg 46%
17:00 +21°C° 0 mm 5 mps 749 mmHg 48%
18:00 +19°C° 0 mm 4 mps 749 mmHg 56%
19:00 +17°C° 0 mm 3 mps 749 mmHg 64%
20:00 +14°C° 0 mm 3 mps 749 mmHg 73%
21:00 +13°C° 0 mm 3 mps 750 mmHg 77%
22:00 +13°C° 0 mm 3 mps 750 mmHg 82%
23:00 +13°C° 0 mm 2 mps 750 mmHg 86%

Day after tomorrow, 15 August, Saturday

Time Temperature Precipitation Wind Pressure Humidity
00:00 +12°C° 0 mm 2 mps 750 mmHg 88%
01:00 +12°C° 0 mm 2 mps 750 mmHg 89%
02:00 +12°C° 0 mm 2 mps 750 mmHg 90%
03:00 +10°C° 0 mm 2 mps 751 mmHg 89%
04:00 +10°C° 0 mm 2 mps 751 mmHg 89%
05:00 +10°C° 0 mm 2 mps 751 mmHg 88%
06:00 +13°C° 0 mm 2 mps 751 mmHg 78%
07:00 +14°C° 0 mm 3 mps 751 mmHg 67%
08:00 +18°C° 0 mm 3 mps 751 mmHg 57%
09:00 +19°C° 0 mm 3 mps 751 mmHg 51%
10:00 +20°C° 0 mm 3 mps 751 mmHg 46%
11:00 +22°C° 0 mm 3 mps 751 mmHg 40%
12:00 +22°C° 0 mm 4 mps 751 mmHg 39%
13:00 +23°C° 0 mm 4 mps 751 mmHg 38%
14:00 +23°C° 0 mm 4 mps 751 mmHg 37%
15:00 +23°C° 0 mm 4 mps 751 mmHg 38%
16:00 +24°C° 0 mm 3 mps 750 mmHg 39%
17:00 +22°C° 0 mm 3 mps 750 mmHg 39%
18:00 +20°C° 0 mm 3 mps 750 mmHg 46%
19:00 +18°C° 0 mm 2 mps 750 mmHg 52%
20:00 +16°C° 0 mm 2 mps 751 mmHg 59%
21:00 +15°C° 0 mm 2 mps 751 mmHg 61%
22:00 +14°C° 0 mm 1 mps 751 mmHg 63%
23:00 +13°C° 0 mm 1 mps 751 mmHg 65%

16 August, Sunday

Time Temperature Precipitation Wind Pressure Humidity
00:00 +13°C° 0 mm 1 mps 751 mmHg 67%
01:00 +13°C° 0 mm 1 mps 751 mmHg 68%
02:00 +11°C° 0 mm 0 mps 751 mmHg 69%
03:00 +12°C° 0 mm 1 mps 751 mmHg 70%
04:00 +12°C° 0 mm 1 mps 751 mmHg 71%
05:00 +12°C° 0 mm 1 mps 751 mmHg 72%
06:00 +15°C° 0 mm 1 mps 751 mmHg 64%
07:00 +18°C° 0 mm 1 mps 751 mmHg 57%
08:00 +19°C° 0 mm 2 mps 751 mmHg 50%
09:00 +21°C° 0 mm 2 mps 751 mmHg 46%
10:00 +23°C° 0 mm 2 mps 751 mmHg 43%
11:00 +24°C° 0 mm 2 mps 751 mmHg 39%
12:00 +25°C° 0 mm 2 mps 751 mmHg 38%
13:00 +26°C° 0 mm 3 mps 751 mmHg 36%
14:00 +27°C° 0 mm 3 mps 750 mmHg 35%
15:00 +26°C° 0 mm 3 mps 750 mmHg 36%
16:00 +26°C° 0 mm 3 mps 750 mmHg 38%
17:00 +26°C° 0 mm 3 mps 750 mmHg 39%
18:00 +24°C° 0 mm 2 mps 750 mmHg 46%
19:00 +21°C° 0 mm 2 mps 750 mmHg 52%
20:00 +20°C° 0 mm 1 mps 750 mmHg 59%
21:00 +19°C° 0 mm 1 mps 750 mmHg 63%
22:00 +19°C° 0 mm 1 mps 750 mmHg 66%
23:00 +18°C° 0 mm 1 mps 750 mmHg 70%

17 August, Monday

Time Temperature Precipitation Wind Pressure Humidity
00:00 +18°C° 0 mm 1 mps 750 mmHg 73%
01:00 +16°C° 0 mm 1 mps 750 mmHg 76%
02:00 +16°C° 0 mm 1 mps 750 mmHg 79%
03:00 +16°C° 0 mm 1 mps 750 mmHg 80%
04:00 +15°C° 0 mm 1 mps 750 mmHg 82%
05:00 +15°C° 0 mm 1 mps 750 mmHg 83%
06:00 +18°C° 0 mm 2 mps 750 mmHg 75%
07:00 +20°C° 0 mm 2 mps 750 mmHg 67%
08:00 +23°C° 0 mm 2 mps 750 mmHg 59%
09:00 +25°C° 0 mm 2 mps 750 mmHg 54%
10:00 +26°C° 0 mm 3 mps 750 mmHg 49%
11:00 +28°C° 0 mm 3 mps 750 mmHg 44%
12:00 +28°C° 0 mm 3 mps 749 mmHg 42%
13:00 +29°C° 0 mm 3 mps 749 mmHg 39%
14:00 +30°C° 0 mm 2 mps 749 mmHg 37%
15:00 +29°C° 0 mm 2 mps 749 mmHg 38%
16:00 +29°C° 0 mm 2 mps 748 mmHg 39%
17:00 +29°C° 0 mm 1 mps 748 mmHg 41%
18:00 +27°C° 0 mm 1 mps 748 mmHg 45%
19:00 +25°C° 0 mm 1 mps 748 mmHg 50%
20:00 +23°C° 0 mm 1 mps 748 mmHg 55%
21:00 +22°C° 0 mm 1 mps 748 mmHg 57%
22:00 +21°C° 0 mm 1 mps 748 mmHg 60%
23:00 +21°C° 0 mm 1 mps 748 mmHg 62%

18 August, Tuesday

Time Temperature Precipitation Wind Pressure Humidity
00:00 +20°C° 0 mm 1 mps 747 mmHg 63%
01:00 +20°C° 0 mm 1 mps 747 mmHg 65%
02:00 +19°C° 0 mm 1 mps 747 mmHg 66%
03:00 +19°C° 0 mm 1 mps 747 mmHg 67%
04:00 +19°C° 0 mm 1 mps 746 mmHg 68%
05:00 +18°C° 0 mm 1 mps 746 mmHg 69%
06:00 +21°C° 0 mm 1 mps 746 mmHg 61%
07:00 +23°C° 0 mm 2 mps 746 mmHg 53%
08:00 +26°C° 0 mm 2 mps 746 mmHg 44%
09:00 +27°C° 0 mm 2 mps 746 mmHg 39%
10:00 +29°C° 0 mm 2 mps 745 mmHg 34%
11:00 +30°C° 0 mm 3 mps 745 mmHg 28%
12:00 +31°C° 0 mm 3 mps 745 mmHg 27%
13:00 +31°C° 0 mm 3 mps 744 mmHg 25%
14:00 +33°C° 0 mm 3 mps 744 mmHg 23%
15:00 +31°C° 0 mm 3 mps 744 mmHg 25%
16:00 +31°C° 0 mm 2 mps 743 mmHg 26%
17:00 +31°C° 0 mm 2 mps 743 mmHg 27%
18:00 +28°C° 0 mm 2 mps 743 mmHg 31%
19:00 +26°C° 0 mm 1 mps 743 mmHg 34%
20:00 +23°C° 0 mm 1 mps 743 mmHg 38%
21:00 +23°C° 0 mm 1 mps 743 mmHg 39%
22:00 +23°C° 0 mm 1 mps 743 mmHg 39%
23:00 +22°C° 0 mm 1 mps 743 mmHg 40%
Show more